[[{"header":{"parameterUnit":"m.s-1","parameterCategory":1,"la1":30.2992,"la2":30.254,"lo1":-89.0895,"lo2":-89.0443,"dy":0.0025,"dx":0.0025,"nx":19,"ny":19,"refTime":"2026-04-28T09:00:00:Z","depth":0,"parameterNumber":2,"parameterNumberName":"U-component_of_WINDS"},"data":[0,0,0,1.6267,1.627,1.6414,1.6415,1.6598,1.66,0,0,0,0,0,0,0,0,0,0,0,1.6224,1.6225,1.6267,1.627,1.6414,1.6415,1.6598,1.66,0,0,0,0,0,0,0,0,0,0,0,1.6223,1.6225,1.6226,1.6271,1.6414,1.6415,1.6598,1.6489,0,0,0,0,0,0,0,0,0,0,1.635,1.6309,1.6224,1.6226,1.6272,1.6414,1.6415,1.6484,1.6496,1.6533,0,1.6565,0,1.6585,1.6612,1.6613,0,0,0,1.6271,1.6299,1.6338,1.6226,1.6273,1.6414,1.6349,1.6491,1.6504,1.6549,1.6567,1.6574,1.6588,1.6613,1.6614,1.6821,1.6822,0,0,1.6263,1.6249,1.6329,1.6347,1.6324,1.6345,1.6354,1.6499,1.6519,1.6568,1.6578,1.6591,1.6615,1.6616,1.682,1.6821,0,0,0,1.624,1.6244,1.628,1.6339,1.6365,1.6349,1.6359,1.6512,1.6525,1.6581,1.6593,1.6616,1.6618,1.6819,1.682,1.6852,0,0,0,1.6235,1.623,1.6276,1.6269,1.6363,1.6441,1.6369,1.6515,1.6532,1.6592,1.6616,1.662,1.6818,1.682,1.6849,1.687,0,0,0,1.6215,1.6228,1.6248,1.6268,1.6329,1.6439,1.646,1.6519,1.654,1.6613,1.662,1.6817,1.6819,1.6846,1.6865,1.6919,0,0,0,1.6189,1.6276,1.6249,1.635,1.6328,1.6457,1.6459,1.6556,1.6622,1.6617,1.6818,1.682,1.6846,1.6863,1.6916,1.6962,1.698,0,0,1.6291,1.6287,1.6348,1.6328,1.6458,1.6436,1.6571,1.6646,1.6666,1.6768,1.6773,1.685,1.6865,1.6919,1.7085,1.7099,0,0,0,1.6376,1.6419,1.6457,1.6519,1.6577,1.6628,1.6684,1.6711,1.6798,1.6715,1.6885,1.6894,1.6926,1.6949,1.6961,1.6989,1.683,1.683,1.683,1.65,1.652,1.6622,1.6659,1.6719,1.6774,1.6825,1.6871,1.6875,1.6915,1.6945,1.7044,1.7069,1.7079,1.7108,1.6971,1.6971,1.6972,1.6972,1.665,1.6715,1.6716,1.6815,1.6836,1.692,1.6976,1.6975,1.7056,1.7023,1.7052,1.7013,1.7093,1.712,1.6974,1.6974,1.6973,1.6973,1.6973,1.6734,1.6768,1.6799,1.689,1.6958,1.6993,1.707,1.7087,1.7103,1.7132,1.7165,1.7165,1.7166,1.7147,1.7147,1.7147,1.7148,1.7148,1.7148,1.6808,1.6842,1.6905,1.6973,1.7014,1.7071,1.7127,1.7168,1.7218,1.7224,1.7224,1.7223,1.7097,1.7065,1.7153,1.7152,1.7152,1.7151,1.7151,1.6952,1.6922,1.7019,1.706,1.7141,1.7207,1.7227,1.7309,1.7346,1.7384,1.7376,1.728,1.7279,1.7269,1.7243,1.7372,1.7372,1.7372,1.7372,1.7022,1.7022,1.7125,1.719,1.7255,1.7282,1.7391,1.7435,1.7476,1.75,1.7483,1.7449,1.7439,1.7443,1.743,1.7406,1.7573,1.7574,1.7574,1.7112,1.7119,1.7208,1.7247,1.7311,1.7366,1.7469,1.7543,1.7583,1.7582,1.7518,1.751,1.7455,1.7437,1.7434,1.7414,1.7369,0,0]},{"header":{"parameterUnit":"m.s-1","parameterCategory":1,"la1":30.2992,"la2":30.254,"lo1":-89.0895,"lo2":-89.0443,"dy":0.0025,"dx":0.0025,"nx":19,"ny":19,"refTime":"2026-04-28T09:00:00:Z","depth":0,"parameterNumber":3,"parameterNumberName":"V-component_of_WINDS"},"data":[0,0,0,5.2683,5.2686,5.2803,5.2803,5.295,5.2951,0,0,0,0,0,0,0,0,0,0,0,5.2651,5.2652,5.2683,5.2686,5.2802,5.2803,5.2949,5.2951,0,0,0,0,0,0,0,0,0,0,0,5.265,5.2651,5.2653,5.2686,5.2802,5.2803,5.2949,5.2861,0,0,0,0,0,0,0,0,0,0,5.2748,5.2721,5.2651,5.2653,5.2687,5.2802,5.2803,5.2857,5.2867,5.2897,0,5.2928,0,5.2942,5.2961,5.2962,0,0,0,5.2683,5.2712,5.2743,5.2653,5.2688,5.2802,5.2749,5.2862,5.2873,5.291,5.293,5.2935,5.2945,5.2962,5.2963,5.3157,5.3158,0,0,5.2677,5.2672,5.2735,5.275,5.2736,5.2745,5.2753,5.2869,5.2889,5.293,5.2939,5.2947,5.2963,5.2964,5.3156,5.3157,0,0,0,5.266,5.2667,5.2695,5.2744,5.2766,5.2749,5.2757,5.2884,5.2893,5.294,5.2949,5.2964,5.2966,5.3155,5.3156,5.3204,0,0,0,5.2656,5.2657,5.2692,5.269,5.2764,5.2827,5.2769,5.2885,5.2898,5.2948,5.2964,5.2967,5.3154,5.3155,5.3201,5.3227,0,0,0,5.2642,5.2656,5.2674,5.2689,5.274,5.2825,5.2841,5.2888,5.2904,5.2962,5.2968,5.3153,5.3155,5.3197,5.3222,5.3278,0,0,0,5.2624,5.2712,5.2675,5.2775,5.2739,5.2855,5.2841,5.2926,5.2982,5.2965,5.3154,5.3156,5.3196,5.3219,5.3275,5.3325,5.3346,0,0,5.2732,5.2725,5.2785,5.2755,5.2877,5.2838,5.2966,5.3019,5.3027,5.3112,5.3117,5.3202,5.3222,5.3278,5.3463,5.3479,0,0,0,5.2817,5.286,5.2893,5.2949,5.2994,5.3035,5.307,5.309,5.3164,5.3071,5.3237,5.3249,5.3282,5.3306,5.332,5.3349,5.3167,5.3167,5.3167,5.296,5.297,5.3069,5.3094,5.3146,5.3184,5.3227,5.3259,5.3249,5.3289,5.3314,5.3426,5.3454,5.3465,5.3495,5.3341,5.3341,5.3341,5.3342,5.3119,5.3181,5.3171,5.3264,5.3273,5.3349,5.3388,5.3379,5.345,5.3407,5.3436,5.3388,5.3483,5.3509,5.3345,5.3345,5.3344,5.3344,5.3343,5.3214,5.3246,5.3272,5.3354,5.3415,5.3434,5.3505,5.3509,5.3512,5.3541,5.3569,5.3568,5.3568,5.3554,5.3555,5.3555,5.3555,5.3556,5.3556,5.3302,5.333,5.3391,5.345,5.3486,5.3535,5.3574,5.3609,5.3648,5.3645,5.3645,5.3632,5.3491,5.3456,5.3562,5.3561,5.356,5.3559,5.3559,5.346,5.3426,5.352,5.3558,5.3627,5.3688,5.3693,5.3764,5.3793,5.3828,5.3809,5.3705,5.3696,5.3685,5.3656,5.3807,5.3807,5.3807,5.3807,5.3541,5.3538,5.3637,5.3697,5.3755,5.377,5.3874,5.3905,5.3931,5.3949,5.3928,5.3889,5.3878,5.3876,5.3861,5.3834,5.4027,5.4027,5.4027,5.3638,5.3642,5.3732,5.3761,5.3816,5.3862,5.396,5.4026,5.4048,5.4036,5.3964,5.3954,5.3892,5.3872,5.3858,5.3834,5.3785,0,0]}]]